Regional Weather Roundup
Issued by NWS Goodland, KS

Home | Current Version | Previous Version | Text Only | Print | Product List | Glossary Off
Versions: 1 2 3 4 5 6 7 8 9 10 11 12 13 14 15 16 17 18 19 20 21 22 23 24 25 26 27 28 29 30 31 32 33 34 35 36 37 38 39 40 41 42 43 44 45 46 47 48 49 50

000
ASUS43 KGLD 300708
RWRGLD

GOODLAND FORECAST AREA HOURLY WEATHER ROUNDUP
NATIONAL WEATHER SERVICE GOODLAND KS
100 AM MDT TUE JUN 30 2015

...OFFICIAL OBSERVATIONS...

CITY           SKY/WX    TMP DP  RH WIND       PRES   REMARKS
GOODLAND KS    CLEAR     66  55  67 SW9       30.10F
HILL CITY KS   CLEAR     66  54  65 CALM      30.03R
IMPERIAL NEB   CLEAR     64  58  80 CALM      30.07F
MCCOOK NEB     CLEAR     73  58  59 SW6       30.04S
AKRON CO       CLEAR     67  54  63 SW8       30.17F
BURLINGTON CO  CLEAR     63  54  72 SW7       30.15S
LIMON CO       CLEAR     57  56  96 N5        30.24S
$$

...UNOFFICIAL OBSERVATIONS...

CITY           SKY/WX    TMP DP  RH WIND       PRES   REMARKS
COLBY KS       CLEAR     64  61  88 W6        30.09S
GOVE KS          N/A     65  32  29 MISG        N/A
NORTON KS      CLEAR     68  54  60 CALM      30.02S
SHARON SPRINGS   N/A     64  54  71 SW5         N/A
KIT CARSON CO    N/A     59  50  71 MISG        N/A
$$



USA.gov is the U.S. government's official web portal to all federal, state and local government web resources and services.